contact:dominique.lefevre@mio.osupytheas.fr, maurice.libes@osupytheas.fr, didier.mallarino@osupytheas.fr
Project:EMSO http://www.emso-fr.org/EMSO-France
Depth: 2436.0 m
Title:EMSO Ligure Ouest : Data MII capteur CSTAR
DateTime,Latitude,Longitude,Instrument_Serial,Reference_Counts,Signal_Counts,Corrected_Signal_raw_counts,Calculated_Beam_c_inverse_meters,Internal_thermistor_counts
DateTime,Latitude,Longitude,Instrument_Serial,Reference_Counts,Signal_Counts,Corrected_Signal_raw_counts,Calculated_Beam_c_inverse_meters,Internal_thermistor_counts
2021-09-19T00:01:19,42.805,6.029,CST-1368DR,5212,7083,14554,0.282,551
2021-09-19T00:04:21,42.805,6.029,CST-1368DR,5212,7082,14552,0.282,551
2021-09-19T00:07:22,42.805,6.029,CST-1368DR,5212,7083,14554,0.282,551
2021-09-19T00:10:24,42.805,6.029,CST-1368DR,5212,7083,14553,0.282,551
2021-09-19T00:13:26,42.805,6.029,CST-1368DR,5212,7081,14550,0.283,551
2021-09-19T00:16:27,42.805,6.029,CST-1368DR,5212,7080,14548,0.283,551
2021-09-19T00:19:29,42.805,6.029,CST-1368DR,5212,7083,14553,0.282,551
2021-09-19T00:22:30,42.805,6.029,CST-1368DR,5212,7083,14554,0.282,551
2021-09-19T00:25:32,42.805,6.029,CST-1368DR,5212,7083,14554,0.282,551
2021-09-19T00:28:33,42.805,6.029,CST-1368DR,5212,7083,14553,0.282,551
2021-09-19T00:31:35,42.805,6.029,CST-1368DR,5212,7082,14552,0.282,551
2021-09-19T00:34:37,42.805,6.029,CST-1368DR,5212,7083,14554,0.282,551
2021-09-19T00:37:38,42.805,6.029,CST-1368DR,5212,7083,14553,0.282,551
2021-09-19T00:40:40,42.805,6.029,CST-1368DR,5212,7083,14553,0.282,551
2021-09-19T00:43:41,42.805,6.029,CST-1368DR,5212,7083,14553,0.282,551
2021-09-19T00:46:43,42.805,6.029,CST-1368DR,5212,7083,14553,0.282,551
2021-09-19T00:49:45,42.805,6.029,CST-1368DR,5212,7083,14554,0.282,551
2021-09-19T00:52:46,42.805,6.029,CST-1368DR,5212,7083,14553,0.282,551
2021-09-19T00:55:48,42.805,6.029,CST-1368DR,5212,7082,14551,0.283,551
2021-09-19T00:58:49,42.805,6.029,CST-1368DR,5212,7083,14554,0.282,551
2021-09-19T01:01:51,42.805,6.029,CST-1368DR,5212,7083,14553,0.282,551
2021-09-19T01:04:52,42.805,6.029,CST-1368DR,5212,7082,14552,0.282,551
2021-09-19T01:07:54,42.805,6.029,CST-1368DR,5212,7082,14552,0.282,551
2021-09-19T01:10:56,42.805,6.029,CST-1368DR,5212,7082,14551,0.283,551
2021-09-19T01:13:57,42.805,6.029,CST-1368DR,5212,7082,14552,0.282,551
2021-09-19T01:16:59,42.805,6.029,CST-1368DR,5212,7082,14552,0.282,551
2021-09-19T01:20:00,42.805,6.029,CST-1368DR,5212,7083,14553,0.282,551
2021-09-19T01:23:02,42.805,6.029,CST-1368DR,5212,7082,14551,0.283,551
2021-09-19T01:26:04,42.805,6.029,CST-1368DR,5212,7082,14551,0.283,551
2021-09-19T01:29:05,42.805,6.029,CST-1368DR,5212,7082,14552,0.282,551
2021-09-19T01:32:07,42.805,6.029,CST-1368DR,5212,7082,14552,0.282,551
2021-09-19T01:35:08,42.805,6.029,CST-1368DR,5212,7083,14553,0.282,551
2021-09-19T01:38:10,42.805,6.029,CST-1368DR,5212,7081,14548,0.283,551
2021-09-19T01:41:11,42.805,6.029,CST-1368DR,5212,7083,14553,0.282,551
2021-09-19T01:44:13,42.805,6.029,CST-1368DR,5212,7081,14549,0.283,551
2021-09-19T01:47:15,42.805,6.029,CST-1368DR,5212,7083,14553,0.282,551
2021-09-19T01:50:16,42.805,6.029,CST-1368DR,5212,7082,14552,0.282,551
2021-09-19T01:53:18,42.805,6.029,CST-1368DR,5212,7082,14552,0.282,551
2021-09-19T01:56:19,42.805,6.029,CST-1368DR,5212,7083,14553,0.282,551
2021-09-19T01:59:21,42.805,6.029,CST-1368DR,5212,7083,14553,0.282,551
2021-09-19T02:02:22,42.805,6.029,CST-1368DR,5212,7083,14553,0.282,551
2021-09-19T02:05:24,42.805,6.029,CST-1368DR,5212,7082,14551,0.283,551
2021-09-19T02:08:26,42.805,6.029,CST-1368DR,5212,7083,14553,0.282,551
2021-09-19T02:11:27,42.805,6.029,CST-1368DR,5212,7082,14552,0.282,551
2021-09-19T02:14:29,42.805,6.029,CST-1368DR,5212,7082,14552,0.282,551
2021-09-19T02:17:30,42.805,6.029,CST-1368DR,5212,7082,14551,0.283,551
2021-09-19T02:20:32,42.805,6.029,CST-1368DR,5212,7082,14552,0.282,551
2021-09-19T02:23:34,42.805,6.029,CST-1368DR,5212,7083,14553,0.282,551
2021-09-19T02:26:35,42.805,6.029,CST-1368DR,5212,7082,14552,0.282,551
2021-09-19T02:29:37,42.805,6.029,CST-1368DR,5212,7082,14551,0.283,551
2021-09-19T02:32:38,42.805,6.029,CST-1368DR,5212,7081,14549,0.283,551
2021-09-19T02:35:40,42.805,6.029,CST-1368DR,5212,7082,14551,0.283,551
2021-09-19T02:38:41,42.805,6.029,CST-1368DR,5212,7082,14552,0.282,551
2021-09-19T02:41:43,42.805,6.029,CST-1368DR,5212,7082,14552,0.282,551
2021-09-19T02:44:45,42.805,6.029,CST-1368DR,5212,7081,14550,0.283,551
2021-09-19T02:47:46,42.805,6.029,CST-1368DR,5212,7082,14551,0.283,551
2021-09-19T02:50:48,42.805,6.029,CST-1368DR,5212,7081,14550,0.283,551
2021-09-19T02:53:49,42.805,6.029,CST-1368DR,5212,7082,14552,0.282,551
2021-09-19T02:56:51,42.805,6.029,CST-1368DR,5212,7082,14552,0.282,551
2021-09-19T02:59:53,42.805,6.029,CST-1368DR,5212,7081,14550,0.283,551
2021-09-19T03:02:54,42.805,6.029,CST-1368DR,5212,7082,14552,0.282,551
2021-09-19T03:05:56,42.805,6.029,CST-1368DR,5212,7082,14551,0.283,551
2021-09-19T03:08:57,42.805,6.029,CST-1368DR,5212,7082,14551,0.283,551
2021-09-19T03:11:59,42.805,6.029,CST-1368DR,5212,7082,14552,0.282,551
2021-09-19T03:15:00,42.805,6.029,CST-1368DR,5212,7081,14548,0.283,551
2021-09-19T03:18:02,42.805,6.029,CST-1368DR,5212,7082,14551,0.283,551
2021-09-19T03:21:04,42.805,6.029,CST-1368DR,5212,7082,14551,0.283,551
2021-09-19T03:24:05,42.805,6.029,CST-1368DR,5212,7082,14552,0.282,551
2021-09-19T03:27:07,42.805,6.029,CST-1368DR,5212,7081,14550,0.283,551
2021-09-19T03:30:08,42.805,6.029,CST-1368DR,5212,7082,14551,0.283,551
2021-09-19T03:33:10,42.805,6.029,CST-1368DR,5212,7081,14549,0.283,551
2021-09-19T03:36:11,42.805,6.029,CST-1368DR,5212,7082,14552,0.282,551
2021-09-19T03:39:13,42.805,6.029,CST-1368DR,5212,7082,14552,0.282,551
2021-09-19T03:42:15,42.805,6.029,CST-1368DR,5212,7081,14550,0.283,551
2021-09-19T03:45:16,42.805,6.029,CST-1368DR,5212,7082,14551,0.283,551
2021-09-19T03:48:18,42.805,6.029,CST-1368DR,5212,7082,14551,0.283,551
2021-09-19T03:51:19,42.805,6.029,CST-1368DR,5212,7081,14550,0.283,551
2021-09-19T03:54:21,42.805,6.029,CST-1368DR,5212,7082,14551,0.283,551
2021-09-19T03:57:23,42.805,6.029,CST-1368DR,5212,7082,14551,0.283,551
2021-09-19T04:00:24,42.805,6.029,CST-1368DR,5212,7082,14551,0.283,551
2021-09-19T04:03:26,42.805,6.029,CST-1368DR,5212,7079,14545,0.284,551
2021-09-19T04:06:27,42.805,6.029,CST-1368DR,5212,7081,14550,0.283,551
2021-09-19T04:09:29,42.805,6.029,CST-1368DR,5212,7081,14550,0.283,551
2021-09-19T04:12:30,42.805,6.029,CST-1368DR,5212,7081,14550,0.283,551
2021-09-19T04:15:32,42.805,6.029,CST-1368DR,5212,7082,14551,0.283,551
2021-09-19T04:18:34,42.805,6.029,CST-1368DR,5212,7082,14551,0.283,551
2021-09-19T04:21:35,42.805,6.029,CST-1368DR,5212,7082,14551,0.283,551
2021-09-19T04:24:37,42.805,6.029,CST-1368DR,5212,7081,14550,0.283,551
2021-09-19T04:27:38,42.805,6.029,CST-1368DR,5212,7081,14548,0.283,551
2021-09-19T04:30:40,42.805,6.029,CST-1368DR,5212,7082,14551,0.283,551
2021-09-19T04:33:41,42.805,6.029,CST-1368DR,5212,7082,14551,0.283,551
2021-09-19T04:36:43,42.805,6.029,CST-1368DR,5212,7081,14549,0.283,551
2021-09-19T04:39:45,42.805,6.029,CST-1368DR,5212,7082,14551,0.283,550
2021-09-19T04:42:46,42.805,6.029,CST-1368DR,5212,7082,14551,0.283,551
2021-09-19T04:45:48,42.805,6.029,CST-1368DR,5212,7082,14551,0.283,551
2021-09-19T04:48:49,42.805,6.029,CST-1368DR,5212,7082,14551,0.283,551
2021-09-19T04:51:51,42.805,6.029,CST-1368DR,5212,7081,14549,0.283,551
2021-09-19T04:54:53,42.805,6.029,CST-1368DR,5212,7082,14551,0.283,551
2021-09-19T04:57:54,42.805,6.029,CST-1368DR,5212,7082,14551,0.283,551
2021-09-19T05:00:56,42.805,6.029,CST-1368DR,5212,7082,14551,0.283,551
2021-09-19T05:03:57,42.805,6.029,CST-1368DR,5212,7080,14548,0.283,551
2021-09-19T05:06:59,42.805,6.029,CST-1368DR,5212,7081,14550,0.283,551
2021-09-19T05:10:00,42.805,6.029,CST-1368DR,5212,7082,14551,0.283,551
2021-09-19T05:13:02,42.805,6.029,CST-1368DR,5212,7081,14548,0.283,551
2021-09-19T05:16:04,42.805,6.029,CST-1368DR,5212,7081,14549,0.283,551
2021-09-19T05:19:05,42.805,6.029,CST-1368DR,5212,7081,14550,0.283,551
2021-09-19T05:22:07,42.805,6.029,CST-1368DR,5212,7081,14550,0.283,551
2021-09-19T05:25:08,42.805,6.029,CST-1368DR,5212,7081,14550,0.283,551
2021-09-19T05:28:10,42.805,6.029,CST-1368DR,5212,7081,14550,0.283,551
2021-09-19T05:31:12,42.805,6.029,CST-1368DR,5212,7081,14549,0.283,551
2021-09-19T05:34:13,42.805,6.029,CST-1368DR,5212,7081,14548,0.283,551
2021-09-19T05:37:15,42.805,6.029,CST-1368DR,5212,7081,14548,0.283,551
2021-09-19T05:40:16,42.805,6.029,CST-1368DR,5212,7081,14550,0.283,551
2021-09-19T05:43:18,42.805,6.029,CST-1368DR,5212,7081,14550,0.283,551
2021-09-19T05:46:19,42.805,6.029,CST-1368DR,5212,7080,14548,0.283,551
2021-09-19T05:49:21,42.805,6.029,CST-1368DR,5212,7081,14548,0.283,551
2021-09-19T05:52:23,42.805,6.029,CST-1368DR,5212,7081,14549,0.283,551
2021-09-19T05:55:24,42.805,6.029,CST-1368DR,5212,7081,14550,0.283,551
2021-09-19T05:58:26,42.805,6.029,CST-1368DR,5212,7081,14549,0.283,551
2021-09-19T06:01:27,42.805,6.029,CST-1368DR,5212,7081,14550,0.283,551
2021-09-19T06:04:29,42.805,6.029,CST-1368DR,5212,7081,14550,0.283,551
2021-09-19T06:07:30,42.805,6.029,CST-1368DR,5212,7080,14548,0.283,551
2021-09-19T06:10:32,42.805,6.029,CST-1368DR,5212,7081,14548,0.283,550
2021-09-19T06:13:34,42.805,6.029,CST-1368DR,5212,7081,14550,0.283,551
2021-09-19T06:16:35,42.805,6.029,CST-1368DR,5212,7081,14549,0.283,551
2021-09-19T06:19:37,42.805,6.029,CST-1368DR,5212,7081,14548,0.283,551
2021-09-19T06:22:38,42.805,6.029,CST-1368DR,5212,7081,14548,0.283,551
2021-09-19T06:25:40,42.805,6.029,CST-1368DR,5212,7081,14548,0.283,551
2021-09-19T06:28:42,42.805,6.029,CST-1368DR,5212,7080,14548,0.283,551
2021-09-19T06:31:43,42.805,6.029,CST-1368DR,5212,7081,14549,0.283,551
2021-09-19T06:34:45,42.805,6.029,CST-1368DR,5212,7081,14549,0.283,551
2021-09-19T06:37:46,42.805,6.029,CST-1368DR,5212,7081,14550,0.283,551
2021-09-19T06:40:48,42.805,6.029,CST-1368DR,5212,7081,14550,0.283,551
2021-09-19T06:43:49,42.805,6.029,CST-1368DR,5212,7081,14550,0.283,551
2021-09-19T06:46:51,42.805,6.029,CST-1368DR,5211,7081,14552,0.282,551
2021-09-19T06:49:53,42.805,6.029,CST-1368DR,5211,7081,14552,0.282,551
2021-09-19T06:52:54,42.805,6.029,CST-1368DR,5211,7077,14544,0.284,551
2021-09-19T06:55:56,42.805,6.029,CST-1368DR,5212,7081,14548,0.283,551
2021-09-19T06:58:57,42.805,6.029,CST-1368DR,5212,7079,14546,0.284,551
2021-09-19T07:01:59,42.805,6.029,CST-1368DR,5211,7081,14551,0.283,551
2021-09-19T07:05:01,42.805,6.029,CST-1368DR,5211,7081,14551,0.283,551
2021-09-19T07:08:02,42.805,6.029,CST-1368DR,5212,7081,14550,0.283,551
2021-09-19T07:11:04,42.805,6.029,CST-1368DR,5212,7081,14549,0.283,551
2021-09-19T07:14:05,42.805,6.029,CST-1368DR,5212,7081,14548,0.283,551
2021-09-19T07:17:07,42.805,6.029,CST-1368DR,5212,7081,14548,0.283,551
2021-09-19T07:20:08,42.805,6.029,CST-1368DR,5211,7080,14551,0.283,551
2021-09-19T07:23:10,42.805,6.029,CST-1368DR,5211,7080,14551,0.283,551
2021-09-19T07:26:12,42.805,6.029,CST-1368DR,5211,7080,14550,0.283,551
2021-09-19T07:29:13,42.805,6.029,CST-1368DR,5211,7079,14549,0.283,551
2021-09-19T07:32:15,42.805,6.029,CST-1368DR,5211,7080,14550,0.283,551
2021-09-19T07:35:16,42.805,6.029,CST-1368DR,5211,7081,14551,0.283,551
2021-09-19T07:38:18,42.805,6.029,CST-1368DR,5211,7079,14549,0.283,551
2021-09-19T07:41:19,42.805,6.029,CST-1368DR,5211,7080,14550,0.283,551
2021-09-19T07:44:21,42.805,6.029,CST-1368DR,5212,7080,14548,0.283,551
2021-09-19T07:47:23,42.805,6.029,CST-1368DR,5211,7081,14552,0.282,551
2021-09-19T07:50:24,42.805,6.029,CST-1368DR,5212,7081,14549,0.283,551
2021-09-19T07:53:26,42.805,6.029,CST-1368DR,5211,7079,14548,0.283,551
2021-09-19T07:56:27,42.805,6.029,CST-1368DR,5211,7079,14548,0.283,551
2021-09-19T07:59:29,42.805,6.029,CST-1368DR,5211,7080,14551,0.283,551
2021-09-19T08:02:31,42.805,6.029,CST-1368DR,5211,7080,14550,0.283,551
2021-09-19T08:05:32,42.805,6.029,CST-1368DR,5211,7080,14551,0.283,551
2021-09-19T08:08:34,42.805,6.029,CST-1368DR,5211,7080,14550,0.283,551
2021-09-19T08:11:35,42.805,6.029,CST-1368DR,5211,7080,14550,0.283,551
2021-09-19T08:14:37,42.805,6.029,CST-1368DR,5211,7080,14551,0.283,551
2021-09-19T08:17:38,42.805,6.029,CST-1368DR,5211,7081,14552,0.282,551
2021-09-19T08:20:40,42.805,6.029,CST-1368DR,5211,7081,14551,0.283,551
2021-09-19T08:23:42,42.805,6.029,CST-1368DR,5211,7080,14551,0.283,551
2021-09-19T08:26:43,42.805,6.029,CST-1368DR,5211,7080,14550,0.283,551
2021-09-19T08:29:45,42.805,6.029,CST-1368DR,5211,7080,14550,0.283,551
2021-09-19T08:32:46,42.805,6.029,CST-1368DR,5211,7080,14551,0.283,551
2021-09-19T08:35:48,42.805,6.029,CST-1368DR,5211,7080,14551,0.283,551
2021-09-19T08:38:50,42.805,6.029,CST-1368DR,5211,7080,14549,0.283,551
2021-09-19T08:41:51,42.805,6.029,CST-1368DR,5211,7080,14549,0.283,551
2021-09-19T08:44:53,42.805,6.029,CST-1368DR,5211,7079,14548,0.283,551
2021-09-19T08:47:54,42.805,6.029,CST-1368DR,5211,7080,14550,0.283,551
2021-09-19T08:50:56,42.805,6.029,CST-1368DR,5211,7080,14549,0.283,551
2021-09-19T08:53:57,42.805,6.029,CST-1368DR,5211,7080,14549,0.283,551
2021-09-19T08:56:59,42.805,6.029,CST-1368DR,5211,7080,14550,0.283,551
2021-09-19T09:00:01,42.805,6.029,CST-1368DR,5211,7080,14550,0.283,551
2021-09-19T09:03:02,42.805,6.029,CST-1368DR,5211,7078,14545,0.284,551
2021-09-19T09:06:04,42.805,6.029,CST-1368DR,5211,7080,14550,0.283,551
2021-09-19T09:09:05,42.805,6.029,CST-1368DR,5211,7080,14550,0.283,551
2021-09-19T09:12:07,42.805,6.029,CST-1368DR,5211,7080,14549,0.283,551
2021-09-19T09:15:09,42.805,6.029,CST-1368DR,5211,7080,14549,0.283,551
2021-09-19T09:18:10,42.805,6.029,CST-1368DR,5211,7080,14550,0.283,551
2021-09-19T09:21:12,42.805,6.029,CST-1368DR,5211,7080,14549,0.283,551
2021-09-19T09:24:13,42.805,6.029,CST-1368DR,5211,7077,14543,0.285,551
2021-09-19T09:27:15,42.805,6.029,CST-1368DR,5211,7080,14550,0.283,551
2021-09-19T09:30:16,42.805,6.029,CST-1368DR,5211,7080,14551,0.283,551
2021-09-19T09:33:18,42.805,6.029,CST-1368DR,5211,7080,14549,0.283,551
2021-09-19T09:36:20,42.805,6.029,CST-1368DR,5211,7079,14548,0.283,551
2021-09-19T09:39:21,42.805,6.029,CST-1368DR,5211,7078,14545,0.284,551
2021-09-19T09:42:23,42.805,6.029,CST-1368DR,5211,7080,14550,0.283,551
2021-09-19T09:45:24,42.805,6.029,CST-1368DR,5211,7081,14551,0.283,551
2021-09-19T09:48:26,42.805,6.029,CST-1368DR,5211,7081,14552,0.282,551
2021-09-19T09:51:27,42.805,6.029,CST-1368DR,5211,7080,14550,0.283,551
2021-09-19T09:54:29,42.805,6.029,CST-1368DR,5211,7079,14549,0.283,551
2021-09-19T09:57:31,42.805,6.029,CST-1368DR,5211,7080,14550,0.283,551
2021-09-19T10:00:32,42.805,6.029,CST-1368DR,5211,7080,14549,0.283,551
2021-09-19T10:03:34,42.805,6.029,CST-1368DR,5211,7079,14549,0.283,551
2021-09-19T10:06:35,42.805,6.029,CST-1368DR,5211,7080,14549,0.283,551
2021-09-19T10:09:37,42.805,6.029,CST-1368DR,5211,7079,14549,0.283,551
2021-09-19T10:12:39,42.805,6.029,CST-1368DR,5211,7080,14549,0.283,551
2021-09-19T10:15:40,42.805,6.029,CST-1368DR,5211,7079,14548,0.283,551
2021-09-19T10:18:42,42.805,6.029,CST-1368DR,5211,7078,14547,0.284,551
2021-09-19T10:21:43,42.805,6.029,CST-1368DR,5211,7080,14549,0.283,551
2021-09-19T10:24:45,42.805,6.029,CST-1368DR,5211,7079,14547,0.284,551
2021-09-19T10:27:46,42.805,6.029,CST-1368DR,5211,7080,14549,0.283,551
2021-09-19T10:30:48,42.805,6.029,CST-1368DR,5211,7079,14549,0.283,551
2021-09-19T10:33:50,42.805,6.029,CST-1368DR,5211,7079,14549,0.283,551
2021-09-19T10:36:51,42.805,6.029,CST-1368DR,5211,7078,14545,0.284,551
2021-09-19T10:39:53,42.805,6.029,CST-1368DR,5211,7079,14548,0.283,551
2021-09-19T10:42:54,42.805,6.029,CST-1368DR,5211,7079,14548,0.283,551
2021-09-19T10:45:56,42.805,6.029,CST-1368DR,5211,7079,14548,0.283,551
2021-09-19T10:48:57,42.805,6.029,CST-1368DR,5211,7079,14548,0.283,551
2021-09-19T10:51:59,42.805,6.029,CST-1368DR,5211,7079,14547,0.284,551
2021-09-19T10:55:01,42.805,6.029,CST-1368DR,5211,7078,14546,0.284,551
2021-09-19T10:58:02,42.805,6.029,CST-1368DR,5211,7079,14548,0.283,551
2021-09-19T11:01:04,42.805,6.029,CST-1368DR,5211,7079,14548,0.283,551
2021-09-19T11:04:05,42.805,6.029,CST-1368DR,5211,7079,14548,0.283,551
2021-09-19T11:07:07,42.805,6.029,CST-1368DR,5211,7079,14548,0.283,551
2021-09-19T11:10:09,42.805,6.029,CST-1368DR,5211,7079,14549,0.283,551
2021-09-19T11:13:10,42.805,6.029,CST-1368DR,5211,7079,14548,0.283,551
2021-09-19T11:16:12,42.805,6.029,CST-1368DR,5211,7079,14548,0.283,551
2021-09-19T11:19:13,42.805,6.029,CST-1368DR,5211,7079,14549,0.283,551
2021-09-19T11:22:15,42.805,6.029,CST-1368DR,5211,7079,14548,0.283,551
2021-09-19T11:25:16,42.805,6.029,CST-1368DR,5211,7079,14548,0.283,551
2021-09-19T11:28:18,42.805,6.029,CST-1368DR,5211,7079,14549,0.283,551
2021-09-19T11:31:20,42.805,6.029,CST-1368DR,5211,7079,14548,0.283,551
2021-09-19T11:34:21,42.805,6.029,CST-1368DR,5211,7078,14547,0.284,551
2021-09-19T11:37:23,42.805,6.029,CST-1368DR,5211,7079,14548,0.283,551
2021-09-19T11:40:24,42.805,6.029,CST-1368DR,5211,7078,14545,0.284,551
2021-09-19T11:43:26,42.805,6.029,CST-1368DR,5211,7079,14548,0.283,551
2021-09-19T11:46:28,42.805,6.029,CST-1368DR,5211,7079,14547,0.284,551
2021-09-19T11:49:29,42.805,6.029,CST-1368DR,5211,7080,14549,0.283,551
2021-09-19T11:52:31,42.805,6.029,CST-1368DR,5211,7079,14547,0.284,551
2021-09-19T11:55:32,42.805,6.029,CST-1368DR,5211,7079,14547,0.284,551
2021-09-19T11:58:34,42.805,6.029,CST-1368DR,5211,7078,14547,0.284,551
2021-09-19T12:01:35,42.805,6.029,CST-1368DR,5211,7079,14548,0.283,551
2021-09-19T12:04:37,42.805,6.029,CST-1368DR,5211,7078,14547,0.284,551
2021-09-19T12:07:39,42.805,6.029,CST-1368DR,5211,7079,14548,0.283,551
2021-09-19T12:10:40,42.805,6.029,CST-1368DR,5211,7079,14547,0.284,551
2021-09-19T12:13:42,42.805,6.029,CST-1368DR,5211,7079,14548,0.283,551
2021-09-19T12:16:43,42.805,6.029,CST-1368DR,5211,7077,14544,0.284,551
2021-09-19T12:19:45,42.805,6.029,CST-1368DR,5211,7077,14544,0.284,551
2021-09-19T12:22:47,42.805,6.029,CST-1368DR,5211,7078,14545,0.284,551
2021-09-19T12:25:48,42.805,6.029,CST-1368DR,5211,7077,14544,0.284,551
2021-09-19T12:28:50,42.805,6.029,CST-1368DR,5211,7078,14547,0.284,551
2021-09-19T12:31:51,42.805,6.029,CST-1368DR,5211,7079,14548,0.283,551
2021-09-19T12:34:53,42.805,6.029,CST-1368DR,5211,7078,14547,0.284,551
2021-09-19T12:37:54,42.805,6.029,CST-1368DR,5211,7077,14543,0.285,551
2021-09-19T12:40:56,42.805,6.029,CST-1368DR,5211,7078,14547,0.284,551
2021-09-19T12:43:58,42.805,6.029,CST-1368DR,5211,7078,14547,0.284,551
2021-09-19T12:46:59,42.805,6.029,CST-1368DR,5211,7074,14538,0.286,551
2021-09-19T12:50:01,42.805,6.029,CST-1368DR,5211,7078,14547,0.284,551
2021-09-19T12:53:02,42.805,6.029,CST-1368DR,5211,7076,14541,0.285,551
2021-09-19T12:56:04,42.805,6.029,CST-1368DR,5211,7079,14547,0.284,551
2021-09-19T12:59:05,42.805,6.029,CST-1368DR,5211,7078,14547,0.284,551
2021-09-19T13:02:07,42.805,6.029,CST-1368DR,5211,7078,14546,0.284,551
2021-09-19T13:05:09,42.805,6.029,CST-1368DR,5211,7078,14546,0.284,551
2021-09-19T13:08:10,42.805,6.029,CST-1368DR,5211,7079,14548,0.283,550
2021-09-19T13:11:12,42.805,6.029,CST-1368DR,5211,7079,14548,0.283,551
2021-09-19T13:14:13,42.805,6.029,CST-1368DR,5211,7078,14546,0.284,551
2021-09-19T13:17:15,42.805,6.029,CST-1368DR,5211,7078,14547,0.284,551
2021-09-19T13:20:17,42.805,6.029,CST-1368DR,5211,7078,14546,0.284,551
2021-09-19T13:23:18,42.805,6.029,CST-1368DR,5211,7078,14547,0.284,551
2021-09-19T13:26:20,42.805,6.029,CST-1368DR,5211,7078,14547,0.284,551
2021-09-19T13:29:21,42.805,6.029,CST-1368DR,5211,7078,14546,0.284,551
2021-09-19T13:32:23,42.805,6.029,CST-1368DR,5211,7078,14547,0.284,551
2021-09-19T13:35:24,42.805,6.029,CST-1368DR,5211,7079,14547,0.284,551
2021-09-19T13:38:26,42.805,6.029,CST-1368DR,5211,7079,14548,0.283,551
2021-09-19T13:41:28,42.805,6.029,CST-1368DR,5211,7076,14542,0.285,551
2021-09-19T13:44:29,42.805,6.029,CST-1368DR,5211,7079,14547,0.284,551
2021-09-19T13:47:31,42.805,6.029,CST-1368DR,5211,7078,14545,0.284,551
2021-09-19T13:50:32,42.805,6.029,CST-1368DR,5211,7078,14547,0.284,551
2021-09-19T13:53:34,42.805,6.029,CST-1368DR,5211,7078,14546,0.284,551
2021-09-19T13:56:35,42.805,6.029,CST-1368DR,5211,7078,14547,0.284,551
2021-09-19T13:59:37,42.805,6.029,CST-1368DR,5211,7078,14547,0.284,551
2021-09-19T14:02:39,42.805,6.029,CST-1368DR,5211,7077,14544,0.284,551
2021-09-19T14:05:40,42.805,6.029,CST-1368DR,5211,7076,14542,0.285,551
2021-09-19T14:08:42,42.805,6.029,CST-1368DR,5211,7078,14547,0.284,551
2021-09-19T14:11:43,42.805,6.029,CST-1368DR,5211,7078,14545,0.284,551
2021-09-19T14:14:45,42.805,6.029,CST-1368DR,5211,7078,14546,0.284,551
2021-09-19T14:17:47,42.805,6.029,CST-1368DR,5211,7078,14547,0.284,551
2021-09-19T14:20:48,42.805,6.029,CST-1368DR,5211,7077,14544,0.284,551
2021-09-19T14:23:50,42.805,6.029,CST-1368DR,5211,7078,14547,0.284,551
2021-09-19T14:26:51,42.805,6.029,CST-1368DR,5211,7078,14546,0.284,551
2021-09-19T14:29:53,42.805,6.029,CST-1368DR,5211,7074,14537,0.286,551
2021-09-19T14:32:54,42.805,6.029,CST-1368DR,5211,7078,14546,0.284,551
2021-09-19T14:35:56,42.805,6.029,CST-1368DR,5211,7079,14547,0.284,551
2021-09-19T14:38:58,42.805,6.029,CST-1368DR,5211,7078,14545,0.284,551
2021-09-19T14:41:59,42.805,6.029,CST-1368DR,5211,7078,14545,0.284,551
2021-09-19T14:45:01,42.805,6.029,CST-1368DR,5211,7079,14547,0.284,551
2021-09-19T14:48:02,42.805,6.029,CST-1368DR,5211,7078,14546,0.284,551
2021-09-19T14:51:04,42.805,6.029,CST-1368DR,5211,7078,14546,0.284,551
2021-09-19T14:54:06,42.805,6.029,CST-1368DR,5211,7076,14542,0.285,551
2021-09-19T14:57:07,42.805,6.029,CST-1368DR,5211,7076,14542,0.285,551
2021-09-19T15:00:09,42.805,6.029,CST-1368DR,5211,7078,14547,0.284,551
2021-09-19T15:03:10,42.805,6.029,CST-1368DR,5211,7078,14545,0.284,551
2021-09-19T15:06:12,42.805,6.029,CST-1368DR,5211,7078,14545,0.284,551
2021-09-19T15:09:13,42.805,6.029,CST-1368DR,5211,7078,14547,0.284,551
2021-09-19T15:12:15,42.805,6.029,CST-1368DR,5211,7078,14545,0.284,551
2021-09-19T15:15:17,42.805,6.029,CST-1368DR,5211,7078,14546,0.284,551
2021-09-19T15:18:18,42.805,6.029,CST-1368DR,5211,7078,14545,0.284,551
2021-09-19T15:21:20,42.805,6.029,CST-1368DR,5211,7078,14545,0.284,551
2021-09-19T15:24:21,42.805,6.029,CST-1368DR,5211,7078,14545,0.284,551
2021-09-19T15:27:23,42.805,6.029,CST-1368DR,5211,7078,14546,0.284,551
2021-09-19T15:30:24,42.805,6.029,CST-1368DR,5211,7078,14545,0.284,551
2021-09-19T15:33:26,42.805,6.029,CST-1368DR,5211,7078,14545,0.284,551
2021-09-19T15:36:28,42.805,6.029,CST-1368DR,5211,7078,14545,0.284,551
2021-09-19T15:39:29,42.805,6.029,CST-1368DR,5211,7076,14541,0.285,551
2021-09-19T15:42:31,42.805,6.029,CST-1368DR,5211,7078,14547,0.284,551
2021-09-19T15:45:32,42.805,6.029,CST-1368DR,5210,7077,14546,0.284,551
2021-09-19T15:48:34,42.805,6.029,CST-1368DR,5211,7078,14545,0.284,551
2021-09-19T15:51:36,42.805,6.029,CST-1368DR,5210,7077,14547,0.284,551
2021-09-19T15:54:37,42.805,6.029,CST-1368DR,5211,7078,14545,0.284,551
2021-09-19T15:57:39,42.805,6.029,CST-1368DR,5211,7078,14545,0.284,551
2021-09-19T16:00:40,42.805,6.029,CST-1368DR,5211,7078,14545,0.284,551
2021-09-19T16:03:42,42.805,6.029,CST-1368DR,5211,7078,14546,0.284,551
2021-09-19T16:06:43,42.805,6.029,CST-1368DR,5210,7078,14548,0.283,551
2021-09-19T16:09:45,42.805,6.029,CST-1368DR,5211,7078,14545,0.284,551
2021-09-19T16:12:47,42.805,6.029,CST-1368DR,5210,7078,14548,0.283,551
2021-09-19T16:15:48,42.805,6.029,CST-1368DR,5211,7078,14545,0.284,551
2021-09-19T16:18:50,42.805,6.029,CST-1368DR,5211,7078,14546,0.284,551
2021-09-19T16:21:51,42.805,6.029,CST-1368DR,5211,7077,14544,0.284,551
2021-09-19T16:24:53,42.805,6.029,CST-1368DR,5210,7078,14548,0.283,551
2021-09-19T16:27:55,42.805,6.029,CST-1368DR,5210,7072,14536,0.287,551
2021-09-19T16:30:56,42.805,6.029,CST-1368DR,5211,7077,14544,0.284,551
2021-09-19T16:33:58,42.805,6.029,CST-1368DR,5211,7078,14545,0.284,551
2021-09-19T16:36:59,42.805,6.029,CST-1368DR,5210,7077,14547,0.284,551
2021-09-19T16:40:01,42.805,6.029,CST-1368DR,5210,7076,14544,0.284,551
2021-09-19T16:43:02,42.805,6.029,CST-1368DR,5210,7077,14547,0.284,551
2021-09-19T16:46:04,42.805,6.029,CST-1368DR,5211,7077,14544,0.284,551
2021-09-19T16:49:06,42.805,6.029,CST-1368DR,5211,7077,14544,0.284,551
2021-09-19T16:52:07,42.805,6.029,CST-1368DR,5210,7077,14547,0.284,551